Simultaneous Nadir Overpasses (SNOs) Predictions

Prediction of SNOs over PacNW region [( 10.00, 139.50) to ( 22.70, 165.60)] between AQUA and NPP Satellites:

Table of predicted SNOs over PacNW region for the next 30.0 days since TLE Epoch: 4/16/2022
Index Date (AQUA) Time (AQUA) AQUA Lat,Lon Date (NPP) Time (NPP) NPP Lat,Lon Distance(km) Time Diff (sec)
1 04/23/2022 03:27:43 22.65, 149.03 04/23/2022 03:27:10 22.00, 145.97 322.55 33
2 05/01/2022 02:37:23 22.69, 161.64 05/01/2022 02:36:22 22.05, 158.67 314.00 61
3 05/03/2022 16:16:08 10.02, 141.88 05/03/2022 16:12:38 7.23, 139.26 423.60 210
4 05/09/2022 03:24:41 18.59, 150.52 05/09/2022 03:25:49 17.82, 147.03 378.32 68
5 05/11/2022 15:25:40 10.03, 154.53 05/11/2022 15:22:11 5.83, 151.65 564.87 209
